Weather History for Whiting Fld NAS, FL

Change the Weather History Date:

Tuesday, September 10, 2013

  Actual Average Record
Temperature  
Mean Temperature 82 °F -  
Max Temperature 91 °F 85 °F 93 °F (2007)
Min Temperature 72 °F 67 °F 60 °F (2011)
Cooling Degree Days 16    
Growing Degree Days 32 (Base 50)    
Moisture  
Dew Point 69 °F    
Average Humidity 69    
Maximum Humidity 87    
Minimum Humidity 42    
Precipitation  
Precipitation 0.00 in - - ()
Sea Level Pressure  
Sea Level Pressure 30.05 in    
Wind  
Wind Speed 4 mph (ENE)    
Max Wind Speed 13 mph    
Max Gust Speed 18 mph    
Visibility 9 miles    
Events Rain    
Averages and records for this station are not official NWS values.
T = Trace of Precipitation, MM = Missing Value Source: NWS Daily Summary

Daily Weather History Graph

Daily Weather History Graph

Search for Another Location

Airport:

Trip Planner

Search our weather history database for the weather conditions in past years. The results will help you decide how hot, cold, wet, or windy it might be!

Date:

Astronomy

Sep. 10, 2013 Rise Set
Actual Time 6:29 AM CDT 6:59 PM CDT
Civil Twilight 6:05 AM CDT 7:23 PM CDT
Nautical Twilight 5:37 AM CDT 7:52 PM CDT
Astronomical Twilight 5:08 AM CDT 8:21 PM CDT
Moon 11:31 AM CDT (9/10) 10:27 PM CDT (9/10)
Length of Visible Light 13h 18m
Length of Day
12h 29m
Waxing Crescent, 28% of the Moon is Illuminated
Sep 10
Waxing Crescent
Sep 12
First Quarter
Sep 19
Full
Sep 26
Last Quarter
Oct 4
New

Hourly Weather History & Observations

Time (CDT) Temp. Heat Index Dew Point Humidity Pressure Visibility Wind Dir Wind Speed Gust Speed Precip Events Conditions
12:56 AM 75.9 °F - 69.1 °F 79% 30.01 in 10.0 mi Calm Calm - 0.00 in Rain Light Rain
1:56 AM 75.0 °F - 71.1 °F 87% 30.00 in 7.0 mi Calm Calm - 0.00 in   Partly Cloudy
2:56 AM 73.9 °F - 69.1 °F 85% 30.00 in 8.0 mi NE 4.6 mph - 0.00 in   Partly Cloudy
3:56 AM 75.0 °F - 70.0 °F 84% 30.01 in 7.0 mi Calm Calm - N/A   Mostly Cloudy
4:56 AM 75.0 °F - 70.0 °F 84% 30.02 in 7.0 mi NNE 3.5 mph - N/A   Mostly Cloudy
5:56 AM 73.0 °F - 69.1 °F 87% 30.04 in 6.0 mi Calm Calm - N/A   Mostly Cloudy
6:56 AM 73.0 °F - 69.1 °F 87% 30.06 in 6.0 mi Calm Calm - N/A   Mostly Cloudy
7:56 AM 77.0 °F - 70.0 °F 79% 30.07 in 6.0 mi East 3.5 mph - N/A   Haze
8:56 AM 81.0 °F 84.9 °F 71.1 °F 72% 30.08 in 8.0 mi East 5.8 mph - N/A   Partly Cloudy
9:56 AM 84.9 °F 90.1 °F 71.1 °F 63% 30.09 in 9.0 mi East 9.2 mph - N/A   Partly Cloudy
10:56 AM 87.1 °F 93.6 °F 72.0 °F 61% 30.10 in 9.0 mi East 9.2 mph - N/A   Scattered Clouds
11:56 AM 88.0 °F 94.7 °F 72.0 °F 59% 30.09 in 10.0 mi East 12.7 mph - N/A   Scattered Clouds
12:56 PM 89.1 °F 92.9 °F 68.0 °F 50% 30.08 in 10.0 mi ESE 9.2 mph - N/A   Scattered Clouds
1:56 PM 91.0 °F 95.2 °F 68.0 °F 47% 30.06 in 10.0 mi ENE 11.5 mph - N/A   Mostly Cloudy
2:56 PM 90.0 °F 91.7 °F 64.9 °F 43% 30.04 in 10.0 mi ENE 12.7 mph 18.4 mph N/A   Scattered Clouds
3:56 PM 90.0 °F 91.3 °F 64.0 °F 42% 30.03 in 10.0 mi ESE 6.9 mph - N/A   Scattered Clouds
4:56 PM 89.1 °F 90.3 °F 64.0 °F 43% 30.02 in 10.0 mi East 6.9 mph - N/A   Scattered Clouds
5:56 PM 87.1 °F 89.9 °F 66.9 °F 51% 30.02 in 10.0 mi East 4.6 mph - N/A   Scattered Clouds
6:56 PM 82.9 °F 85.8 °F 68.0 °F 60% 30.04 in 10.0 mi NE 3.5 mph - N/A   Scattered Clouds
7:56 PM 80.1 °F 82.7 °F 68.0 °F 67% 30.06 in 10.0 mi ESE 6.9 mph - N/A   Scattered Clouds
8:56 PM 75.0 °F - 68.0 °F 79% 30.08 in 10.0 mi Calm Calm - N/A   Scattered Clouds
9:56 PM 73.0 °F - 69.1 °F 87% 30.09 in 10.0 mi Calm Calm - N/A   Partly Cloudy
10:56 PM 72.0 °F - 68.0 °F 87% 30.08 in 9.0 mi North 3.5 mph - N/A   Partly Cloudy
11:56 PM 73.0 °F - 68.0 °F 84% 30.07 in 10.0 mi North 3.5 mph - N/A   Clear